Simultaneous Nadir Overpasses (SNOs) Predictions

Prediction of SNOs between AQUA and METOP-B Satellite Orbit:

Table of predicted SNOs for the next 14.0 days since TLE Epoch: 10/7/2016
Index Date (AQUA) Time (AQUA) Lat,Lon (AQUA) SZA (AQUA ) Date (METOP-B) Time (METOP-B) Lat,Lon (METOP-B) SZA (METOP-B ) Distance(km) Time Diff (sec)
1 10/08/2016 16:50:42 73.69, -78.27 79.85 10/08/2016 16:49:59 73.69, -78.24 79.85 1.10 43
2 10/08/2016 17:40:09 -73.78, 89.17 100.05 10/08/2016 17:40:39 -73.77, 89.27 100.06 3.55 30
3 10/11/2016 12:24:57 73.69, -11.83 80.91 10/11/2016 12:24:23 73.67, -11.88 80.89 2.52 34
4 10/11/2016 13:14:24 -73.78, 155.62 98.99 10/11/2016 13:15:03 -73.75, 155.64 99.02 3.11 39
5 10/14/2016 07:59:12 73.70, 54.59 81.97 10/14/2016 07:58:46 73.70, 54.59 81.97 0.45 26
6 10/14/2016 08:48:39 -73.79,-137.96 97.94 10/14/2016 08:49:26 -73.78,-137.89 97.95 2.22 47
7 10/17/2016 02:43:48 -73.19, -45.53 97.54 10/17/2016 02:42:40 -73.12, -47.63 97.57 68.09 68
8 10/17/2016 03:33:26 73.73, 120.97 83.03 10/17/2016 03:33:08 73.72, 121.06 83.03 2.93 18
9 10/17/2016 04:22:52 -73.76, -71.45 96.93 10/17/2016 04:23:49 -73.75, -71.54 96.94 2.85 57
10 10/19/2016 22:18:09 -73.54, 20.18 96.16 10/19/2016 22:16:56 -73.50, 19.61 96.20 18.71 73
11 10/19/2016 23:07:40 73.72,-172.57 84.04 10/19/2016 23:07:32 73.69,-172.60 84.01 3.07 8
12 10/19/2016 23:57:07 -73.80, -5.10 95.88 10/19/2016 23:58:12 -73.77, -5.08 95.90 2.44 65
